Location: *
(51.4660°N, 0.3360°W)
Time: 15:58:54
(UTC+00:00)

DMSP B5D2-2 - Pass Details

Date: 19 September 2019
Orbit: 791 x 806 km, 98.4° (Epoch: 18 October)

Event Time Altitude Azimuth Distance (km) Brightness Sun altitude
Rises 21:10:04 0° 12° (NNE) 3,334 7.7 -26.7°
Reaches altitude 10° 21:12:26 10° 10° (N) 2,400 6.9 -27.0°
Maximum altitude 21:17:41 65° 290° (WNW) 886 4.4 -27.6°
Enters shadow 21:19:12 45° 228° (SW) 1,096 4.7 -27.8°
